Terminal Aerodrome Forecast
Issued by NWS St Louis, MO

Home | Current Version | Previous Version | Text Only | Print | Product List | Glossary On
Versions: 1 2 3 4 5 6 7 8 9 10 11 12 13 14 15 16 17 18 19 20 21
000
FTUS43 KLSX 161200 AAA
TAFCOU
TAF AMD
KCOU 161259Z 1613/1712 04005KT P6SM BKN030
      TEMPO 1614/1616 BKN015
     FM161600 07005KT P6SM SCT030
     FM162300 09004KT P6SM SCT150=

USA.gov is the U.S. government's official web portal to all federal, state and local government web resources and services.